Location: Bad Dürkheim
(49.4618°N, 8.1724°E)
Time: 04:24:32
(UTC+00:00)

Spot 2 Rocket - Pass Details

Date: 14 June 2025
Orbit: 753 x 766 km, 98.3° (Epoch: 12 July)

Event Time Altitude Azimuth Distance (km) Brightness Sun altitude
Exits shadow 20:07:49 - 155° (SSE) 2,825 5.8 -4.8°
Reaches altitude 10° 20:09:09 10° 153° (SSE) 2,292 5.4 -4.9°
Maximum altitude 20:14:10 68° 72° (ENE) 827 3.6 -5.5°
Drops below altitude 10° 20:19:14 10° 350° (N) 2,316 7.0 -6.1°
Sets 20:21:33 0° 348° (NNW) 3,248 7.9 -6.3°
